Tracking 26940 objects as of 28-Jan-2023
HD Live streaming from Space Station
objects crossing your sky now

MOLNIYA 2-14

Track MOLNIYA 2-14 now!
MOLNIYA 2-14 is classified as:


NORAD ID: 8195
Int'l Code: 1975-081A
Perigee: 2,268.9 km
Apogee: 37,842.0 km
Inclination: 63.4 °
Period: 712.6 minutes
Semi major axis: 26426 km
RCS: 17.1549 m2 (large)
Launch date: September 9, 1975
Source: Commonwealth of Independent States (former USSR) (CIS)
Launch site: PLESETSK MISSILE AND SPACE COMPLEX (PKMTR)
Your satellite tracking list
Your tracking list is empty




NASA's NSSDC Master Catalog

Two Line Element Set (TLE):
1 08195U 75081A   23028.33524123 -.00000992  00000-0  00000-0 0  9993
2 08195  63.3936 164.2836 6730576 291.9638  12.0604  2.02089640347432
Source of the keplerian elements: AFSPC